Elmira, NY

6:15 PM EDT on September 20, 2017 (GMT -0400)
Elmira-Corning Regional

Weather History for KELM - May, 2014

Change the Weather History Date:

Thursday, May 8, 2014

  Actual Average Record
Temperature  
Mean Temperature 63 °F -  
Max Temperature 79 °F 65 °F 89 °F (1936)
Min Temperature 48 °F 36 °F 25 °F (1970)
Degree Days  
Heating Degree Days 2    
Growing Degree Days 13 (Base 50)    
Moisture  
Dew Point 50 °F    
Average Humidity 69    
Maximum Humidity 90    
Minimum Humidity 46    
Precipitation  
Precipitation 0.10 in - - ()
Sea Level Pressure  
Sea Level Pressure 30.08 in    
Wind  
Wind Speed 3 mph (ESE)    
Max Wind Speed 8 mph    
Max Gust Speed -    
Visibility 8 miles    
Events Rain    
Averages and records for this station are not official NWS values.
T = Trace of Precipitation, MM = Missing Value Source: NWS Daily Summary

Daily Weather History Graph

Daily Weather History Graph

Search for Another Location

Airport or City:

Trip Planner

Search our weather history database for the weather conditions in past years. The results will help you decide how hot, cold, wet, or windy it might be!

Date:

Astronomy

May. 08, 2014 Rise Set
Actual Time 5:54 AM EDT 8:14 PM EDT
Civil Twilight 5:23 AM EDT 8:45 PM EDT
Nautical Twilight 4:44 AM EDT 9:24 PM EDT
Astronomical Twilight 4:01 AM EDT 10:07 PM EDT
Moon 2:06 PM EDT (5/8) 2:31 AM EDT (5/8)
Length of Visible Light 15h 22m
Length of Day
14h 20m
Waxing Gibbous, 64% of the Moon is Illuminated
May 8
Waxing Gibbous
May 14
Full
May 21
Last Quarter
May 28
New
Jun 5
First Quarter

Hourly Weather History & Observations

Time (EDT) Temp. Dew Point Humidity Pressure Visibility Wind Dir Wind Speed Gust Speed Precip Events Conditions
12:53 AM 54.0 °F 39.0 °F 57% 30.13 in 10.0 mi South 4.6 mph - N/A   Overcast
1:53 AM 53.1 °F 42.1 °F 66% 30.12 in 10.0 mi SW 3.5 mph - 0.00 in Rain Light Rain
2:53 AM 53.1 °F 42.1 °F 66% 30.10 in 10.0 mi SSE 3.5 mph - 0.00 in Rain Light Rain
3:53 AM 53.1 °F 44.1 °F 71% 30.11 in 8.0 mi South 3.5 mph - 0.00 in Rain Light Rain
4:53 AM 50.0 °F 46.0 °F 86% 30.11 in 8.0 mi Calm Calm - 0.02 in Rain Light Rain
5:53 AM 48.9 °F 46.0 °F 90% 30.11 in 4.0 mi Calm Calm - 0.04 in Rain Light Rain
6:38 AM 50.0 °F 46.4 °F 87% 30.11 in 2.0 mi Calm Calm - 0.04 in Rain Light Rain
6:49 AM 50.0 °F 46.4 °F 87% 30.11 in 4.0 mi Calm Calm - 0.04 in Rain Light Rain
6:53 AM 50.0 °F 46.9 °F 89% 30.12 in 4.0 mi Calm Calm - 0.04 in Rain Light Rain
7:53 AM 52.0 °F 46.9 °F 83% 30.11 in 4.0 mi Calm Calm - 0.00 in   Haze
8:53 AM 54.0 °F 48.9 °F 83% 30.12 in 5.0 mi NNE 3.5 mph - N/A   Haze
9:53 AM 55.9 °F 50.0 °F 80% 30.12 in 5.0 mi Calm Calm - N/A   Haze
10:53 AM 59.0 °F 51.1 °F 75% 30.11 in 7.0 mi Calm Calm - N/A   Overcast
11:53 AM 64.9 °F 54.0 °F 68% 30.10 in 8.0 mi Calm Calm - N/A   Scattered Clouds
12:53 PM 70.0 °F 55.0 °F 59% 30.07 in 10.0 mi Calm Calm - N/A   Clear
2:53 PM 75.0 °F 55.0 °F 50% 30.03 in 10.0 mi WSW 4.6 mph - N/A   Clear
3:53 PM 78.1 °F 55.9 °F 46% 30.00 in 10.0 mi Variable 4.6 mph - N/A   Clear
5:53 PM 78.1 °F 55.9 °F 46% 29.99 in 10.0 mi ENE 6.9 mph - N/A   Clear
6:53 PM 75.9 °F 55.9 °F 50% 29.98 in 10.0 mi ENE 8.1 mph - N/A   Clear
7:53 PM 73.0 °F 55.0 °F 53% 30.01 in 10.0 mi East 5.8 mph - N/A   Overcast
8:53 PM 71.1 °F 55.0 °F 57% 30.03 in 10.0 mi East 4.6 mph - N/A   Mostly Cloudy
9:53 PM 69.1 °F 55.0 °F 61% 30.05 in 10.0 mi East 3.5 mph - N/A   Overcast
10:53 PM 64.0 °F 54.0 °F 70% 30.05 in 10.0 mi Calm Calm - N/A   Scattered Clouds
11:53 PM 62.1 °F 54.0 °F 75% 30.06 in 10.0 mi NNE 5.8 mph - N/A   Mostly Cloudy